Time,TemperatureF,DewpointF,PressureIn,WindDirection,WindDirectionDegrees,WindSpeedMPH,WindSpeedGustMPH,Humidity,HourlyPrecipIn,Conditions,Clouds,dailyrainin,SolarRadiationWatts/m^2,SoftwareType,DateUTC
2013-05-28 00:00:00,72.8,55.2,29.67,West,281,24.0,30.0,54,0.00,,CLR,0.00,0.00,VWS V14.01,2013-05-28 07:00:00,
2013-05-28 00:05:00,72.7,53.5,29.67,WNW,301,30.0,30.0,51,0.00,,CLR,0.00,0.00,VWS V14.01,2013-05-28 07:05:00,
2013-05-28 00:10:00,72.5,53.9,29.67,WNW,303,32.0,34.0,52,0.00,,CLR,0.00,0.00,VWS V14.01,2013-05-28 07:10:00,
2013-05-28 00:15:00,72.3,53.7,29.67,NW,319,20.0,31.0,52,0.00,,CLR,0.00,0.00,VWS V14.01,2013-05-28 07:15:00,
2013-05-28 00:20:00,72.3,53.2,29.67,WNW,287,22.0,27.0,51,0.00,,CLR,0.00,0.00,VWS V14.01,2013-05-28 07:20:00,
2013-05-28 00:25:00,72.3,53.7,29.67,NW,313,22.0,31.0,52,0.00,,CLR,0.00,0.00,VWS V14.01,2013-05-28 07:25:00,
2013-05-28 00:30:00,72.1,53.5,29.66,NW,319,35.0,35.0,52,0.00,,CLR,0.00,0.00,VWS V14.01,2013-05-28 07:30:00,
2013-05-28 00:35:00,72.1,53.5,29.66,NW,308,13.0,23.0,52,0.00,,CLR,0.00,0.00,VWS V14.01,2013-05-28 07:35:00,
2013-05-28 00:40:00,72.0,53.4,29.66,NW,305,22.0,38.0,52,0.00,,CLR,0.00,0.00,VWS V14.01,2013-05-28 07:40:00,
2013-05-28 00:45:00,72.0,53.4,29.65,WNW,300,18.0,20.0,52,0.00,,CLR,0.00,0.00,VWS V14.01,2013-05-28 07:45:00,
2013-05-28 00:50:00,72.1,53.5,29.65,WNW,296,26.0,36.0,52,0.00,,,0.00,0.00,VWS V14.01,2013-05-28 07:50:00,
2013-05-28 00:51:00,72.1,53.5,29.65,WNW,285,19.0,32.0,52,0.00,,CLR,0.00,0.00,VWS V14.01,2013-05-28 07:51:00,
2013-05-28 00:55:00,72.1,53.0,29.65,WNW,302,27.0,35.0,51,0.00,,,0.00,0.00,VWS V14.01,2013-05-28 07:55:00,
2013-05-28 00:56:00,72.1,53.0,29.65,West,277,21.0,29.0,51,0.00,,CLR,0.00,0.00,VWS V14.01,2013-05-28 07:56:00,
2013-05-28 01:00:00,72.0,53.4,29.65,NW,313,24.0,41.0,52,0.00,,,0.00,0.00,VWS V14.01,2013-05-28 08:00:00,
2013-05-28 01:01:00,72.0,53.4,29.65,West,272,33.0,35.0,52,0.00,,CLR,0.00,0.00,VWS V14.01,2013-05-28 08:01:00,
2013-05-28 01:05:00,71.8,53.2,29.65,WNW,294,24.0,40.0,52,0.00,,,0.00,0.00,VWS V14.01,2013-05-28 08:05:00,
2013-05-28 01:06:00,71.8,53.2,29.65,WNW,302,21.0,27.0,52,0.00,,CLR,0.00,0.00,VWS V14.01,2013-05-28 08:06:00,
2013-05-28 01:10:00,71.6,53.1,29.65,West,263,20.0,39.0,52,0.00,,,0.00,0.00,VWS V14.01,2013-05-28 08:10:00,
2013-05-28 01:11:00,71.5,53.0,29.65,WNW,287,25.0,33.0,52,0.00,,CLR,0.00,0.00,VWS V14.01,2013-05-28 08:11:00,
2013-05-28 01:15:00,71.3,53.3,29.65,NW,311,29.0,40.0,53,0.00,,,0.00,0.00,VWS V14.01,2013-05-28 08:15:00,
2013-05-28 01:16:00,71.3,53.3,29.65,WNW,293,32.0,32.0,53,0.00,,CLR,0.00,0.00,VWS V14.01,2013-05-28 08:16:00,
2013-05-28 01:20:00,71.1,53.1,29.65,West,272,31.0,41.0,53,0.00,,,0.00,0.00,VWS V14.01,2013-05-28 08:20:00,
2013-05-28 01:21:00,71.1,53.1,29.65,West,275,31.0,31.0,53,0.00,,CLR,0.00,0.00,VWS V14.01,2013-05-28 08:21:00,
2013-05-28 01:25:00,70.9,53.4,29.65,WNW,283,22.0,37.0,54,0.00,,,0.00,0.00,VWS V14.01,2013-05-28 08:25:00,
2013-05-28 01:26:00,70.9,53.4,29.65,WNW,294,33.0,33.0,54,0.00,,CLR,0.00,0.00,VWS V14.01,2013-05-28 08:26:00,
2013-05-28 01:30:00,70.8,53.8,29.65,West,270,30.0,37.0,55,0.00,,,0.00,0.00,VWS V14.01,2013-05-28 08:30:00,
2013-05-28 01:31:00,70.8,53.8,29.65,WNW,291,21.0,34.0,55,0.00,,CLR,0.00,0.00,VWS V14.01,2013-05-28 08:31:00,
2013-05-28 01:35:00,70.4,53.5,29.65,WNW,284,38.0,39.0,55,0.00,,,0.00,0.00,VWS V14.01,2013-05-28 08:35:00,
2013-05-28 01:36:00,70.4,53.5,29.65,NW,304,25.0,39.0,55,0.00,,CLR,0.00,0.00,VWS V14.01,2013-05-28 08:36:00,
2013-05-28 01:40:00,70.4,53.5,29.65,WNW,298,27.0,39.0,55,0.00,,,0.00,0.00,VWS V14.01,2013-05-28 08:40:00,
2013-05-28 01:41:00,70.3,53.4,29.65,NW,320,32.0,32.0,55,0.00,,CLR,0.00,0.00,VWS V14.01,2013-05-28 08:41:00,
2013-05-28 01:45:00,70.3,53.4,29.65,WNW,284,32.0,37.0,55,0.00,,,0.00,0.00,VWS V14.01,2013-05-28 08:45:00,
2013-05-28 01:46:00,70.3,53.4,29.65,West,277,30.0,38.0,55,0.00,,CLR,0.00,0.00,VWS V14.01,2013-05-28 08:46:00,
2013-05-28 01:50:00,70.3,53.4,29.65,WNW,283,22.0,38.0,55,0.00,,,0.00,0.00,VWS V14.01,2013-05-28 08:50:00,
2013-05-28 01:51:00,70.3,53.4,29.65,NW,313,30.0,34.0,55,0.00,,CLR,0.00,0.00,VWS V14.01,2013-05-28 08:51:00,
2013-05-28 01:55:00,70.3,53.4,29.65,NW,311,34.0,37.0,55,0.00,,,0.00,0.00,VWS V14.01,2013-05-28 08:55:00,
2013-05-28 01:56:00,70.3,53.4,29.65,West,261,23.0,36.0,55,0.00,,CLR,0.00,0.00,VWS V14.01,2013-05-28 08:56:00,
2013-05-28 02:00:00,70.1,53.7,29.64,WNW,292,25.0,38.0,56,0.00,,,0.00,0.00,VWS V14.01,2013-05-28 09:00:00,
2013-05-28 02:05:00,70.1,53.2,29.64,WNW,292,26.0,39.0,55,0.00,,,0.00,0.00,VWS V14.01,2013-05-28 09:05:00,
2013-05-28 02:10:00,70.3,51.9,29.64,WNW,292,26.0,37.0,52,0.00,,,0.00,0.00,VWS V14.01,2013-05-28 09:10:00,
2013-05-28 02:15:00,70.6,52.7,29.64,WNW,292,25.0,40.0,53,0.00,,,0.00,0.00,VWS V14.01,2013-05-28 09:15:00,
2013-05-28 02:20:00,70.8,52.8,29.64,NW,315,21.0,34.0,53,0.00,,,0.00,0.00,VWS V14.01,2013-05-28 09:20:00,
2013-05-28 02:25:00,70.6,53.2,29.64,NW,315,20.0,31.0,54,0.00,,,0.00,0.00,VWS V14.01,2013-05-28 09:25:00,
2013-05-28 02:30:00,70.4,53.0,29.64,NW,315,16.0,26.0,54,0.00,,,0.00,0.00,VWS V14.01,2013-05-28 09:30:00,
2013-05-28 02:35:00,70.3,52.4,29.64,WNW,292,21.0,35.0,53,0.00,,,0.00,0.00,VWS V14.01,2013-05-28 09:35:00,
2013-05-28 02:40:00,70.3,52.9,29.64,WNW,292,21.0,37.0,54,0.00,,,0.00,0.00,VWS V14.01,2013-05-28 09:40:00,
2013-05-28 02:45:00,70.3,54.8,29.64,WNW,292,22.0,41.0,58,0.00,,,0.00,0.00,VWS V14.01,2013-05-28 09:45:00,
2013-05-28 02:50:00,70.6,52.1,29.64,WNW,292,21.0,35.0,52,0.00,,,0.00,0.00,VWS V14.01,2013-05-28 09:50:00,
2013-05-28 02:55:00,70.6,52.7,29.64,WNW,292,24.0,38.0,53,0.00,,,0.00,0.00,VWS V14.01,2013-05-28 09:55:00,
2013-05-28 03:00:00,70.4,52.0,29.63,WNW,292,24.0,35.0,52,0.00,,,0.00,0.00,VWS V14.01,2013-05-28 10:00:00,
2013-05-28 03:05:00,70.8,52.3,29.63,NW,315,20.0,34.0,52,0.00,,,0.00,0.00,VWS V14.01,2013-05-28 10:05:00,
2013-05-28 03:10:00,70.9,51.3,29.63,NW,315,18.0,29.0,50,0.00,,,0.00,0.00,VWS V14.01,2013-05-28 10:10:00,
2013-05-28 03:15:00,71.3,51.7,29.63,WNW,292,22.0,33.0,50,0.00,,,0.00,0.00,VWS V14.01,2013-05-28 10:15:00,
2013-05-28 03:20:00,71.1,52.1,29.63,WNW,292,23.0,33.0,51,0.00,,,0.00,0.00,VWS V14.01,2013-05-28 10:20:00,
2013-05-28 03:25:00,70.8,52.3,29.63,WNW,292,21.0,32.0,52,0.00,,,0.00,0.00,VWS V14.01,2013-05-28 10:25:00,
2013-05-28 03:30:00,70.4,52.5,29.64,WNW,292,22.0,36.0,53,0.00,,,0.00,0.00,VWS V14.01,2013-05-28 10:30:00,
2013-05-28 03:35:00,70.3,51.9,29.64,WNW,292,26.0,34.0,52,0.00,,,0.00,0.00,VWS V14.01,2013-05-28 10:35:00,
2013-05-28 03:40:00,70.3,51.9,29.64,WNW,292,20.0,33.0,52,0.00,,,0.00,0.00,VWS V14.01,2013-05-28 10:40:00,
2013-05-28 03:45:00,70.3,51.9,29.64,WNW,292,20.0,31.0,52,0.00,,,0.00,0.00,VWS V14.01,2013-05-28 10:45:00,
2013-05-28 03:50:00,70.3,52.4,29.64,WNW,292,20.0,32.0,53,0.00,,,0.00,0.00,VWS V14.01,2013-05-28 10:50:00,
2013-05-28 03:55:00,70.1,52.2,29.64,WNW,292,20.0,36.0,53,0.00,,,0.00,0.00,VWS V14.01,2013-05-28 10:55:00,
2013-05-28 04:00:00,69.9,52.0,29.64,WNW,292,21.0,34.0,53,0.00,,,0.00,0.00,VWS V14.01,2013-05-28 11:00:00,
2013-05-28 04:05:00,69.9,52.0,29.64,WNW,292,21.0,34.0,53,0.00,,,0.00,0.00,VWS V14.01,2013-05-28 11:05:00,
2013-05-28 04:10:00,69.9,52.0,29.64,WNW,292,20.0,33.0,53,0.00,,,0.00,0.00,VWS V14.01,2013-05-28 11:10:00,
2013-05-28 04:15:00,69.8,52.4,29.64,WNW,292,20.0,29.0,54,0.00,,,0.00,0.00,VWS V14.01,2013-05-28 11:15:00,
2013-05-28 04:20:00,69.8,51.9,29.64,WNW,292,20.0,29.0,53,0.00,,,0.00,0.00,VWS V14.01,2013-05-28 11:20:00,
2013-05-28 04:25:00,69.9,52.0,29.64,WNW,292,20.0,29.0,53,0.00,,,0.00,0.00,VWS V14.01,2013-05-28 11:25:00,
2013-05-28 04:30:00,70.1,51.7,29.62,WNW,292,21.0,34.0,52,0.00,,,0.00,0.00,VWS V14.01,2013-05-28 11:30:00,
2013-05-28 04:35:00,69.9,52.0,29.62,WNW,292,24.0,36.0,53,0.00,,,0.00,0.00,VWS V14.01,2013-05-28 11:35:00,
2013-05-28 04:40:00,69.9,52.0,29.62,WNW,292,21.0,38.0,53,0.00,,,0.00,0.00,VWS V14.01,2013-05-28 11:40:00,
2013-05-28 04:45:00,69.9,51.5,29.62,WNW,292,21.0,33.0,52,0.00,,,0.00,0.00,VWS V14.01,2013-05-28 11:45:00,
2013-05-28 04:50:00,69.9,51.5,29.62,WNW,292,21.0,33.0,52,0.00,,,0.00,0.00,VWS V14.01,2013-05-28 11:50:00,
2013-05-28 04:55:00,69.9,52.0,29.62,WNW,292,22.0,35.0,53,0.00,,,0.00,0.00,VWS V14.01,2013-05-28 11:55:00,
2013-05-28 05:00:00,69.9,51.5,29.62,WNW,292,21.0,35.0,52,0.00,,,0.00,0.00,VWS V14.01,2013-05-28 12:00:00,
2013-05-28 05:05:00,70.1,51.7,29.62,WNW,292,23.0,37.0,52,0.00,,,0.00,0.00,VWS V14.01,2013-05-28 12:05:00,
2013-05-28 05:10:00,69.9,51.5,29.62,WNW,292,22.0,32.0,52,0.00,,,0.00,0.00,VWS V14.01,2013-05-28 12:10:00,
2013-05-28 05:15:00,69.9,51.5,29.63,WNW,292,21.0,34.0,52,0.00,,,0.00,0.00,VWS V14.01,2013-05-28 12:15:00,
2013-05-28 05:20:00,69.8,51.9,29.63,WNW,292,25.0,41.0,53,0.00,,,0.00,0.00,VWS V14.01,2013-05-28 12:20:00,
2013-05-28 05:25:00,69.8,51.9,29.63,WNW,292,20.0,34.0,53,0.00,,,0.00,0.00,VWS V14.01,2013-05-28 12:25:00,
2013-05-28 05:30:00,69.6,52.2,29.62,WNW,292,21.0,36.0,54,0.00,,,0.00,0.00,VWS V14.01,2013-05-28 12:30:00,
2013-05-28 05:35:00,69.4,52.0,29.62,WNW,292,24.0,34.0,54,0.00,,,0.00,0.00,VWS V14.01,2013-05-28 12:35:00,
2013-05-28 05:40:00,69.3,52.5,29.62,WNW,292,25.0,36.0,55,0.00,,,0.00,0.00,VWS V14.01,2013-05-28 12:40:00,
2013-05-28 05:45:00,69.3,52.0,29.62,WNW,292,27.0,43.0,54,0.00,,,0.00,6.00,VWS V14.01,2013-05-28 12:45:00,
2013-05-28 05:50:00,69.6,51.7,29.62,WNW,292,25.0,43.0,53,0.00,,,0.00,13.00,VWS V14.01,2013-05-28 12:50:00,
2013-05-28 05:55:00,69.8,52.4,29.62,WNW,292,22.0,32.0,54,0.00,,,0.00,18.00,VWS V14.01,2013-05-28 12:55:00,
2013-05-28 06:00:00,69.6,52.2,29.62,WNW,292,23.0,32.0,54,0.00,,,0.00,26.00,VWS V14.01,2013-05-28 13:00:00,
2013-05-28 06:05:00,69.4,52.0,29.62,WNW,292,22.0,36.0,54,0.00,,,0.00,36.00,VWS V14.01,2013-05-28 13:05:00,
2013-05-28 06:10:00,69.3,52.5,29.62,WNW,292,21.0,32.0,55,0.00,,,0.00,45.00,VWS V14.01,2013-05-28 13:10:00,
2013-05-28 06:15:00,69.3,52.5,29.62,WNW,292,22.0,34.0,55,0.00,,,0.00,54.00,VWS V14.01,2013-05-28 13:15:00,
2013-05-28 06:20:00,69.3,52.5,29.62,WNW,292,22.0,36.0,55,0.00,,,0.00,62.00,VWS V14.01,2013-05-28 13:20:00,
2013-05-28 06:25:00,69.4,52.5,29.62,WNW,292,20.0,34.0,55,0.00,,,0.00,80.00,VWS V14.01,2013-05-28 13:25:00,
2013-05-28 06:30:00,69.3,53.0,29.63,WNW,292,22.0,33.0,56,0.00,,,0.00,100.00,VWS V14.01,2013-05-28 13:30:00,
2013-05-28 06:35:00,69.4,52.5,29.63,WNW,292,23.0,34.0,55,0.00,,,0.00,104.00,VWS V14.01,2013-05-28 13:35:00,
2013-05-28 06:40:00,69.4,52.5,29.63,WNW,292,21.0,35.0,55,0.00,,,0.00,146.00,VWS V14.01,2013-05-28 13:40:00,
2013-05-28 06:45:00,69.4,52.5,29.63,WNW,292,22.0,32.0,55,0.00,,,0.00,181.00,VWS V14.01,2013-05-28 13:45:00,
2013-05-28 06:50:00,69.6,52.7,29.63,WNW,292,22.0,34.0,55,0.00,,,0.00,196.00,VWS V14.01,2013-05-28 13:50:00,
2013-05-28 06:55:00,69.8,52.4,29.63,WNW,292,24.0,32.0,54,0.00,,,0.00,184.00,VWS V14.01,2013-05-28 13:55:00,
2013-05-28 07:00:00,69.9,52.5,29.63,WNW,292,23.0,35.0,54,0.00,,,0.00,196.00,VWS V14.01,2013-05-28 14:00:00,
2013-05-28 07:05:00,70.3,52.4,29.63,WNW,292,20.0,32.0,53,0.00,,,0.00,197.00,VWS V14.01,2013-05-28 14:05:00,
2013-05-28 07:10:00,70.3,52.4,29.63,WNW,292,22.0,34.0,53,0.00,,,0.00,160.00,VWS V14.01,2013-05-28 14:10:00,
2013-05-28 07:15:00,70.1,52.7,29.63,NW,315,21.0,32.0,54,0.00,,,0.00,173.00,VWS V14.01,2013-05-28 14:15:00,
2013-05-28 07:20:00,70.1,52.2,29.63,WNW,292,19.0,30.0,53,0.00,,,0.00,198.00,VWS V14.01,2013-05-28 14:20:00,
2013-05-28 07:25:00,70.4,53.0,29.63,WNW,292,17.0,32.0,54,0.00,,,0.00,279.00,VWS V14.01,2013-05-28 14:25:00,
2013-05-28 07:30:00,70.6,52.7,29.64,WNW,292,20.0,31.0,53,0.00,,,0.00,235.00,VWS V14.01,2013-05-28 14:30:00,
2013-05-28 07:35:00,70.8,52.8,29.64,WNW,292,16.0,27.0,53,0.00,,,0.00,300.00,VWS V14.01,2013-05-28 14:35:00,
2013-05-28 07:40:00,70.9,52.4,29.64,WNW,292,16.0,26.0,52,0.00,,,0.00,259.00,VWS V14.01,2013-05-28 14:40:00,
2013-05-28 07:45:00,71.3,52.3,29.64,WNW,292,15.0,23.0,51,0.00,,,0.00,263.00,VWS V14.01,2013-05-28 14:45:00,
2013-05-28 07:50:00,71.8,52.7,29.64,WNW,292,13.0,22.0,51,0.00,,,0.00,267.00,VWS V14.01,2013-05-28 14:50:00,
2013-05-28 07:55:00,72.1,53.0,29.64,WNW,292,13.0,24.0,51,0.00,,,0.00,310.00,VWS V14.01,2013-05-28 14:55:00,
2013-05-28 08:00:00,72.3,52.6,29.64,WNW,292,18.0,29.0,50,0.00,,,0.00,273.00,VWS V14.01,2013-05-28 15:00:00,
2013-05-28 08:05:00,72.3,52.6,29.64,WNW,292,20.0,33.0,50,0.00,,,0.00,358.00,VWS V14.01,2013-05-28 15:05:00,
2013-05-28 08:10:00,72.5,53.4,29.64,WNW,292,20.0,31.0,51,0.00,,,0.00,455.00,VWS V14.01,2013-05-28 15:10:00,
2013-05-28 08:15:00,72.5,52.8,29.64,WNW,292,22.0,30.0,50,0.00,,,0.00,375.00,VWS V14.01,2013-05-28 15:15:00,
2013-05-28 08:20:00,72.5,52.8,29.64,WNW,292,20.0,35.0,50,0.00,,,0.00,379.00,VWS V14.01,2013-05-28 15:20:00,
2013-05-28 08:25:00,72.5,52.3,29.64,WNW,292,20.0,31.0,49,0.00,,,0.00,308.00,VWS V14.01,2013-05-28 15:25:00,
2013-05-28 08:30:00,72.5,52.8,29.65,WNW,292,18.0,30.0,50,0.00,,,0.00,310.00,VWS V14.01,2013-05-28 15:30:00,
2013-05-28 08:35:00,72.8,52.5,29.65,WNW,292,19.0,28.0,49,0.00,,,0.00,401.00,VWS V14.01,2013-05-28 15:35:00,
2013-05-28 08:40:00,73.0,52.7,29.65,WNW,292,20.0,29.0,49,0.00,,,0.00,376.00,VWS V14.01,2013-05-28 15:40:00,
2013-05-28 08:45:00,73.2,52.4,29.65,WNW,292,20.0,30.0,48,0.00,,,0.00,473.00,VWS V14.01,2013-05-28 15:45:00,
2013-05-28 08:50:00,73.5,52.6,29.65,WNW,292,17.0,27.0,48,0.00,,,0.00,519.00,VWS V14.01,2013-05-28 15:50:00,
2013-05-28 08:55:00,74.0,52.5,29.65,WNW,292,17.0,25.0,47,0.00,,,0.00,551.00,VWS V14.01,2013-05-28 15:55:00,
2013-05-28 09:00:00,74.6,52.5,29.64,WNW,292,17.0,30.0,46,0.00,,,0.00,555.00,VWS V14.01,2013-05-28 16:00:00,
2013-05-28 09:05:00,74.9,52.2,29.64,WNW,292,18.0,26.0,45,0.00,,,0.00,548.00,VWS V14.01,2013-05-28 16:05:00,
2013-05-28 09:10:00,75.3,51.9,29.64,WNW,292,16.0,24.0,44,0.00,,,0.00,548.00,VWS V14.01,2013-05-28 16:10:00,
2013-05-28 09:15:00,75.8,51.7,29.64,WNW,292,14.0,26.0,43,0.00,,,0.00,651.00,VWS V14.01,2013-05-28 16:15:00,
2013-05-28 09:20:00,76.1,52.0,29.64,WNW,292,18.0,26.0,43,0.00,,,0.00,524.00,VWS V14.01,2013-05-28 16:20:00,
2013-05-28 09:25:00,76.5,51.1,29.64,WNW,292,15.0,24.0,41,0.00,,,0.00,634.00,VWS V14.01,2013-05-28 16:25:00,
2013-05-28 09:30:00,76.8,51.3,29.65,WNW,292,17.0,23.0,41,0.00,,,0.00,688.00,VWS V14.01,2013-05-28 16:30:00,
2013-05-28 09:35:00,77.4,51.9,29.65,WNW,292,16.0,26.0,41,0.00,,,0.00,771.00,VWS V14.01,2013-05-28 16:35:00,
2013-05-28 09:40:00,77.7,51.5,29.65,WNW,292,15.0,26.0,40,0.00,,,0.00,809.00,VWS V14.01,2013-05-28 16:40:00,
2013-05-28 09:45:00,78.3,51.3,29.64,WNW,292,15.0,21.0,39,0.00,,,0.00,775.00,VWS V14.01,2013-05-28 16:45:00,
2013-05-28 09:50:00,78.8,51.1,29.64,WNW,292,14.0,27.0,38,0.00,,,0.00,767.00,VWS V14.01,2013-05-28 16:50:00,
2013-05-28 09:55:00,79.0,51.2,29.64,WNW,292,17.0,29.0,38,0.00,,,0.00,751.00,VWS V14.01,2013-05-28 16:55:00,
2013-05-28 10:05:00,79.0,51.2,29.64,WNW,292,15.0,24.0,38,0.00,,,0.00,811.00,VWS V14.01,2013-05-28 17:05:00,
2013-05-28 10:10:00,79.2,51.4,29.64,WNW,292,16.0,25.0,38,0.00,,,0.00,802.00,VWS V14.01,2013-05-28 17:10:00,
2013-05-28 10:15:00,79.0,50.5,29.64,WNW,292,17.0,26.0,37,0.00,,,0.00,831.00,VWS V14.01,2013-05-28 17:15:00,
2013-05-28 10:20:00,78.8,51.1,29.64,WNW,292,17.0,25.0,38,0.00,,,0.00,840.00,VWS V14.01,2013-05-28 17:20:00,
2013-05-28 10:25:00,79.4,51.6,29.64,WNW,292,16.0,25.0,38,0.00,,,0.00,852.00,VWS V14.01,2013-05-28 17:25:00,
2013-05-28 10:30:00,79.6,50.3,29.64,WNW,292,16.0,25.0,36,0.00,,,0.00,850.00,VWS V14.01,2013-05-28 17:30:00,
2013-05-28 10:35:00,79.8,52.0,29.64,WNW,292,17.0,25.0,38,0.00,,,0.00,800.00,VWS V14.01,2013-05-28 17:35:00,
2013-05-28 10:40:00,79.9,51.3,29.64,WNW,292,16.0,26.0,37,0.00,,,0.00,861.00,VWS V14.01,2013-05-28 17:40:00,
2013-05-28 10:45:00,79.9,51.3,29.65,WNW,292,16.0,25.0,37,0.00,,,0.00,878.00,VWS V14.01,2013-05-28 17:45:00,
2013-05-28 10:50:00,80.3,50.2,29.65,WNW,292,15.0,24.0,35,0.00,,,0.00,872.00,VWS V14.01,2013-05-28 17:50:00,
2013-05-28 10:55:00,80.7,51.3,29.65,WNW,292,15.0,24.0,36,0.00,,,0.00,873.00,VWS V14.01,2013-05-28 17:55:00,
2013-05-28 11:00:00,80.7,50.5,29.66,WNW,292,17.0,24.0,35,0.00,,,0.00,886.00,VWS V14.01,2013-05-28 18:00:00,
2013-05-28 11:05:00,80.9,52.2,29.66,WNW,292,15.0,25.0,37,0.00,,,0.00,893.00,VWS V14.01,2013-05-28 18:05:00,
2013-05-28 11:10:00,80.7,51.3,29.66,WNW,292,15.0,28.0,36,0.00,,,0.00,917.00,VWS V14.01,2013-05-28 18:10:00,
2013-05-28 11:15:00,80.5,51.9,29.66,WNW,292,17.0,27.0,37,0.00,,,0.00,874.00,VWS V14.01,2013-05-28 18:15:00,
2013-05-28 11:20:00,80.5,51.1,29.66,WNW,292,17.0,29.0,36,0.00,,,0.00,913.00,VWS V14.01,2013-05-28 18:20:00,
2013-05-28 11:25:00,80.7,52.8,29.66,WNW,292,19.0,29.0,38,0.00,,,0.00,920.00,VWS V14.01,2013-05-28 18:25:00,
2013-05-28 11:30:00,80.9,50.7,29.66,WNW,292,16.0,27.0,35,0.00,,,0.00,930.00,VWS V14.01,2013-05-28 18:30:00,
2013-05-28 11:35:00,81.2,51.0,29.66,WNW,292,15.0,23.0,35,0.00,,,0.00,926.00,VWS V14.01,2013-05-28 18:35:00,
2013-05-28 11:40:00,81.4,51.2,29.66,WNW,292,16.0,27.0,35,0.00,,,0.00,937.00,VWS V14.01,2013-05-28 18:40:00,
2013-05-28 11:45:00,81.6,51.3,29.66,WNW,292,15.0,21.0,35,0.00,,,0.00,941.00,VWS V14.01,2013-05-28 18:45:00,
2013-05-28 11:50:00,81.8,50.7,29.66,WNW,292,14.0,22.0,34,0.00,,,0.00,953.00,VWS V14.01,2013-05-28 18:50:00,
2013-05-28 11:55:00,82.2,50.3,29.66,WNW,292,15.0,27.0,33,0.00,,,0.00,978.00,VWS V14.01,2013-05-28 18:55:00,
2013-05-28 12:00:00,82.4,51.2,29.65,WNW,292,13.0,22.0,34,0.00,,,0.00,1014.00,VWS V14.01,2013-05-28 19:00:00,
2013-05-28 12:05:00,83.0,47.5,29.65,WNW,292,12.0,20.0,29,0.00,,,0.00,1003.00,VWS V14.01,2013-05-28 19:05:00,
2013-05-28 12:10:00,83.2,50.3,29.65,WNW,292,16.0,25.0,32,0.00,,,0.00,691.00,VWS V14.01,2013-05-28 19:10:00,
2013-05-28 12:15:00,82.6,50.6,29.65,WNW,292,15.0,23.0,33,0.00,,,0.00,524.00,VWS V14.01,2013-05-28 19:15:00,
2013-05-28 12:20:00,82.0,50.9,29.65,WNW,292,16.0,22.0,34,0.00,,,0.00,899.00,VWS V14.01,2013-05-28 19:20:00,
2013-05-28 12:25:00,82.0,50.9,29.65,WNW,292,16.0,30.0,34,0.00,,,0.00,882.00,VWS V14.01,2013-05-28 19:25:00,
2013-05-28 12:30:00,82.0,50.9,29.64,WNW,292,14.0,23.0,34,0.00,,,0.00,633.00,VWS V14.01,2013-05-28 19:30:00,
2013-05-28 12:35:00,82.2,49.4,29.64,WNW,292,11.0,21.0,32,0.00,,,0.00,844.00,VWS V14.01,2013-05-28 19:35:00,
2013-05-28 12:40:00,82.8,50.8,29.64,WNW,292,12.0,21.0,33,0.00,,,0.00,1002.00,VWS V14.01,2013-05-28 19:40:00,
2013-05-28 12:45:00,83.4,50.5,29.64,WNW,292,15.0,25.0,32,0.00,,,0.00,1058.00,VWS V14.01,2013-05-28 19:45:00,
2013-05-28 12:50:00,83.8,50.8,29.64,WNW,292,15.0,24.0,32,0.00,,,0.00,904.00,VWS V14.01,2013-05-28 19:50:00,
2013-05-28 12:55:00,83.4,51.3,29.64,WNW,292,16.0,24.0,33,0.00,,,0.00,998.00,VWS V14.01,2013-05-28 19:55:00,
2013-05-28 13:00:00,83.4,50.5,29.64,WNW,292,15.0,29.0,32,0.00,,,0.00,1028.00,VWS V14.01,2013-05-28 20:00:00,
2013-05-28 13:05:00,83.8,50.0,29.64,WNW,292,13.0,25.0,31,0.00,,,0.00,594.00,VWS V14.01,2013-05-28 20:05:00,
2013-05-28 13:10:00,83.8,50.0,29.64,WNW,292,14.0,24.0,31,0.00,,,0.00,493.00,VWS V14.01,2013-05-28 20:10:00,
2013-05-28 13:15:00,83.6,49.8,29.63,WNW,292,15.0,21.0,31,0.00,,,0.00,532.00,VWS V14.01,2013-05-28 20:15:00,
2013-05-28 13:20:00,83.4,49.6,29.63,WNW,292,13.0,19.0,31,0.00,,,0.00,431.00,VWS V14.01,2013-05-28 20:20:00,
2013-05-28 13:25:00,83.4,49.6,29.63,WNW,292,11.0,21.0,31,0.00,,,0.00,422.00,VWS V14.01,2013-05-28 20:25:00,
2013-05-28 13:30:00,83.6,49.8,29.62,WNW,292,13.0,21.0,31,0.00,,,0.00,483.00,VWS V14.01,2013-05-28 20:30:00,
2013-05-28 13:35:00,83.6,48.9,29.62,WNW,292,11.0,21.0,30,0.00,,,0.00,754.00,VWS V14.01,2013-05-28 20:35:00,
2013-05-28 13:40:00,83.8,50.0,29.62,WNW,292,12.0,18.0,31,0.00,,,0.00,656.00,VWS V14.01,2013-05-28 20:40:00,
2013-05-28 13:45:00,84.1,50.2,29.62,WNW,292,11.0,18.0,31,0.00,,,0.00,984.00,VWS V14.01,2013-05-28 20:45:00,
2013-05-28 13:50:00,84.7,49.9,29.62,WNW,292,11.0,18.0,30,0.00,,,0.00,962.00,VWS V14.01,2013-05-28 20:50:00,
2013-05-28 13:55:00,85.1,49.3,29.62,WNW,292,11.0,20.0,29,0.00,,,0.00,881.00,VWS V14.01,2013-05-28 20:55:00,
2013-05-28 14:00:00,85.3,49.5,29.62,WNW,292,13.0,22.0,29,0.00,,,0.00,480.00,VWS V14.01,2013-05-28 21:00:00,
2013-05-28 14:05:00,85.5,49.7,29.62,West,270,11.0,18.0,29,0.00,,,0.00,931.00,VWS V14.01,2013-05-28 21:05:00,
2013-05-28 14:10:00,85.9,49.0,29.62,WNW,292,13.0,23.0,28,0.00,,,0.00,914.00,VWS V14.01,2013-05-28 21:10:00,
2013-05-28 14:15:00,86.1,49.2,29.62,WNW,292,11.0,17.0,28,0.00,,,0.00,899.00,VWS V14.01,2013-05-28 21:15:00,
2013-05-28 14:20:00,86.5,49.6,29.62,WNW,292,15.0,26.0,28,0.00,,,0.00,892.00,VWS V14.01,2013-05-28 21:20:00,
2013-05-28 14:25:00,87.0,50.0,29.62,WNW,292,11.0,19.0,28,0.00,,,0.00,884.00,VWS V14.01,2013-05-28 21:25:00,
2013-05-28 14:30:00,87.2,49.2,29.61,WNW,292,14.0,22.0,27,0.00,,,0.00,875.00,VWS V14.01,2013-05-28 21:30:00,
2013-05-28 14:35:00,87.2,49.2,29.61,WNW,292,11.0,21.0,27,0.00,,,0.00,863.00,VWS V14.01,2013-05-28 21:35:00,
2013-05-28 14:59:00,88.2,49.0,29.61,West,264,5.0,12.0,26,0.00,,,0.00,817.00,VWS V14.01,2013-05-28 21:59:00,
2013-05-28 15:04:00,88.4,50.2,29.60,West,271,8.0,19.0,27,0.00,,CLR,0.00,803.00,VWS V14.01,2013-05-28 22:04:00,
2013-05-28 15:09:00,88.6,50.4,29.60,West,276,14.0,16.0,27,0.00,,CLR,0.00,798.00,VWS V14.01,2013-05-28 22:09:00,
2013-05-28 15:14:00,88.6,50.4,29.60,WNW,293,13.0,27.0,27,0.00,,CLR,0.00,779.00,VWS V14.01,2013-05-28 22:14:00,
2013-05-28 15:19:00,88.6,50.4,29.59,WNW,283,12.0,24.0,27,0.00,,CLR,0.00,765.00,VWS V14.01,2013-05-28 22:19:00,
2013-05-28 15:24:00,88.8,50.5,29.59,WNW,293,20.0,26.0,27,0.00,,CLR,0.00,758.00,VWS V14.01,2013-05-28 22:24:00,
2013-05-28 15:29:00,88.8,50.5,29.59,WNW,298,22.0,23.0,27,0.00,,CLR,0.00,749.00,VWS V14.01,2013-05-28 22:29:00,
2013-05-28 15:34:00,88.8,51.5,29.58,WNW,303,12.0,30.0,28,0.00,,CLR,0.00,733.00,VWS V14.01,2013-05-28 22:34:00,
2013-05-28 15:39:00,89.0,50.7,29.58,WNW,286,24.0,27.0,27,0.00,,CLR,0.00,719.00,VWS V14.01,2013-05-28 22:39:00,
2013-05-28 15:44:00,88.8,49.5,29.58,West,279,21.0,27.0,26,0.00,,CLR,0.00,708.00,VWS V14.01,2013-05-28 22:44:00,
2013-05-28 15:49:00,89.0,49.7,29.58,NNW,331,9.0,24.0,26,0.00,,CLR,0.00,693.00,VWS V14.01,2013-05-28 22:49:00,
2013-05-28 15:54:00,89.3,51.0,29.58,WNW,283,19.0,24.0,27,0.00,,CLR,0.00,680.00,VWS V14.01,2013-05-28 22:54:00,
2013-05-28 15:59:00,89.3,50.0,29.58,NW,312,8.0,20.0,26,0.00,,CLR,0.00,668.00,VWS V14.01,2013-05-28 22:59:00,
2013-05-28 16:04:00,89.3,50.0,29.58,NW,315,14.0,26.0,26,0.00,,CLR,0.00,650.00,VWS V14.01,2013-05-28 23:04:00,
2013-05-28 16:09:00,88.8,50.5,29.58,NW,304,22.0,33.0,27,0.00,,CLR,0.00,631.00,VWS V14.01,2013-05-28 23:09:00,
2013-05-28 16:14:00,88.6,50.4,29.58,WNW,286,22.0,28.0,27,0.00,,CLR,0.00,621.00,VWS V14.01,2013-05-28 23:14:00,
2013-05-28 16:20:00,88.6,50.4,29.57,WNW,297,18.0,24.0,27,0.00,,CLR,0.00,601.00,VWS V14.01,2013-05-28 23:20:00,
2013-05-28 16:25:00,88.6,50.4,29.57,WNW,293,23.0,24.0,27,0.00,,CLR,0.00,589.00,VWS V14.01,2013-05-28 23:25:00,
2013-05-28 16:30:00,88.8,49.5,29.57,WNW,288,21.0,30.0,26,0.00,,CLR,0.00,573.00,VWS V14.01,2013-05-28 23:30:00,
2013-05-28 16:35:00,89.0,50.7,29.57,WNW,283,23.0,29.0,27,0.00,,CLR,0.00,563.00,VWS V14.01,2013-05-28 23:35:00,
2013-05-28 16:40:00,88.8,50.5,29.57,WNW,292,24.0,32.0,27,0.00,,CLR,0.00,545.00,VWS V14.01,2013-05-28 23:40:00,
2013-05-28 16:45:00,88.4,50.2,29.56,WNW,295,25.0,37.0,27,0.00,,CLR,0.00,524.00,VWS V14.01,2013-05-28 23:45:00,
2013-05-28 16:50:00,87.8,50.7,29.56,WNW,294,20.0,35.0,28,0.00,,CLR,0.00,517.00,VWS V14.01,2013-05-28 23:50:00,
2013-05-28 16:55:00,87.6,50.5,29.56,WNW,294,23.0,34.0,28,0.00,,CLR,0.00,496.00,VWS V14.01,2013-05-28 23:55:00,
2013-05-28 17:00:00,87.6,50.5,29.56,WNW,300,20.0,29.0,28,0.00,,CLR,0.00,480.00,VWS V14.01,2013-05-29 00:00:00,
2013-05-28 17:05:00,87.4,49.3,29.56,NW,309,30.0,30.0,27,0.00,,CLR,0.00,461.00,VWS V14.01,2013-05-29 00:05:00,
2013-05-28 17:12:00,87.4,50.3,29.56,WNW,285,27.0,36.0,28,0.00,,CLR,0.00,432.00,VWS V14.01,2013-05-29 00:12:00,
2013-05-28 17:17:00,87.0,50.0,29.56,NW,321,13.0,30.0,28,0.00,,CLR,0.00,420.00,VWS V14.01,2013-05-29 00:17:00,
2013-05-28 17:22:00,86.7,49.7,29.56,WNW,294,24.0,31.0,28,0.00,,CLR,0.00,404.00,VWS V14.01,2013-05-29 00:22:00,
2013-05-28 17:27:00,86.5,50.5,29.56,WNW,300,23.0,31.0,29,0.00,,CLR,0.00,387.00,VWS V14.01,2013-05-29 00:27:00,
2013-05-28 17:32:00,86.3,51.2,29.56,NW,313,21.0,34.0,30,0.00,,CLR,0.00,364.00,VWS V14.01,2013-05-29 00:32:00,
2013-05-28 17:37:00,86.1,51.1,29.56,NW,304,25.0,31.0,30,0.00,,CLR,0.00,353.00,VWS V14.01,2013-05-29 00:37:00,
2013-05-28 17:42:00,85.9,50.9,29.56,WNW,293,18.0,32.0,30,0.00,,CLR,0.00,338.00,VWS V14.01,2013-05-29 00:42:00,
2013-05-28 17:47:00,85.9,50.9,29.56,WNW,300,20.0,26.0,30,0.00,,CLR,0.00,318.00,VWS V14.01,2013-05-29 00:47:00,
2013-05-28 17:52:00,85.7,51.6,29.56,West,279,25.0,30.0,31,0.00,,CLR,0.00,302.00,VWS V14.01,2013-05-29 00:52:00,
2013-05-28 17:57:00,85.5,51.4,29.56,WNW,291,14.0,32.0,31,0.00,,CLR,0.00,283.00,VWS V14.01,2013-05-29 00:57:00,
2013-05-28 18:02:00,85.3,51.3,29.55,NNW,331,22.0,32.0,31,0.00,,CLR,0.00,267.00,VWS V14.01,2013-05-29 01:02:00,
2013-05-28 18:07:00,85.1,51.1,29.55,WNW,295,30.0,35.0,31,0.00,,CLR,0.00,251.00,VWS V14.01,2013-05-29 01:07:00,
2013-05-28 18:12:00,84.9,51.8,29.55,WNW,292,22.0,27.0,32,0.00,,CLR,0.00,236.00,VWS V14.01,2013-05-29 01:12:00,
2013-05-28 18:17:00,84.5,51.4,29.55,WNW,292,21.0,30.0,32,0.00,,CLR,0.00,216.00,VWS V14.01,2013-05-29 01:17:00,
2013-05-28 18:22:00,84.3,51.3,29.55,WNW,292,23.0,33.0,32,0.00,,CLR,0.00,200.00,VWS V14.01,2013-05-29 01:22:00,
2013-05-28 18:27:00,84.1,51.9,29.55,WNW,292,27.0,32.0,33,0.00,,CLR,0.00,181.00,VWS V14.01,2013-05-29 01:27:00,
2013-05-28 18:32:00,84.0,51.8,29.56,WNW,291,21.0,30.0,33,0.00,,CLR,0.00,163.00,VWS V14.01,2013-05-29 01:32:00,
2013-05-28 18:37:00,83.8,51.7,29.56,West,279,30.0,32.0,33,0.00,,CLR,0.00,146.00,VWS V14.01,2013-05-29 01:37:00,
2013-05-28 18:42:00,83.4,52.1,29.56,WNW,298,27.0,38.0,34,0.00,,CLR,0.00,128.00,VWS V14.01,2013-05-29 01:42:00,
2013-05-28 18:47:00,83.2,52.7,29.56,West,277,22.0,35.0,35,0.00,,CLR,0.00,111.00,VWS V14.01,2013-05-29 01:47:00,
2013-05-28 18:52:00,83.0,52.6,29.56,WNW,286,27.0,38.0,35,0.00,,CLR,0.00,95.00,VWS V14.01,2013-05-29 01:52:00,
2013-05-28 18:57:00,82.6,52.2,29.56,WNW,298,29.0,32.0,35,0.00,,CLR,0.00,83.00,VWS V14.01,2013-05-29 01:57:00,
2013-05-28 19:02:00,82.4,52.8,29.56,NW,313,24.0,33.0,36,0.00,,CLR,0.00,67.00,VWS V14.01,2013-05-29 02:02:00,
2013-05-28 19:08:00,82.2,52.6,29.56,WNW,291,33.0,33.0,36,0.00,,CLR,0.00,54.00,VWS V14.01,2013-05-29 02:08:00,
2013-05-28 19:13:00,82.0,52.4,29.56,West,279,27.0,35.0,36,0.00,,CLR,0.00,44.00,VWS V14.01,2013-05-29 02:13:00,
2013-05-28 19:18:00,81.6,52.8,29.56,West,273,29.0,35.0,37,0.00,,CLR,0.00,35.00,VWS V14.01,2013-05-29 02:18:00,
2013-05-28 19:23:00,81.4,52.7,29.56,West,281,17.0,32.0,37,0.00,,CLR,0.00,26.00,VWS V14.01,2013-05-29 02:23:00,
2013-05-28 19:28:00,81.1,53.1,29.56,WNW,286,23.0,30.0,38,0.00,,CLR,0.00,21.00,VWS V14.01,2013-05-29 02:28:00,
2013-05-28 19:33:00,80.9,52.9,29.57,WNW,291,26.0,31.0,38,0.00,,CLR,0.00,14.00,VWS V14.01,2013-05-29 02:33:00,
2013-05-28 19:38:00,80.5,53.3,29.57,West,279,27.0,33.0,39,0.00,,CLR,0.00,11.00,VWS V14.01,2013-05-29 02:38:00,
2013-05-28 19:43:00,80.3,53.8,29.57,NW,309,18.0,29.0,40,0.00,,CLR,0.00,7.00,VWS V14.01,2013-05-29 02:43:00,
2013-05-28 19:48:00,79.9,54.1,29.57,West,267,21.0,35.0,41,0.00,,CLR,0.00,5.00,VWS V14.01,2013-05-29 02:48:00,
2013-05-28 19:53:00,79.8,54.0,29.57,NNW,344,16.0,33.0,41,0.00,,CLR,0.00,0.00,VWS V14.01,2013-05-29 02:53:00,
2013-05-28 19:58:00,79.6,53.8,29.57,West,281,34.0,34.0,41,0.00,,CLR,0.00,0.00,VWS V14.01,2013-05-29 02:58:00,
2013-05-28 20:03:00,79.4,53.7,29.57,WNW,296,17.0,32.0,41,0.00,,CLR,0.00,0.00,VWS V14.01,2013-05-29 03:03:00,
2013-05-28 20:08:00,79.2,54.2,29.57,WNW,286,30.0,30.0,42,0.00,,CLR,0.00,0.00,VWS V14.01,2013-05-29 03:08:00,
2013-05-28 20:13:00,78.8,54.4,29.57,NW,315,13.0,32.0,43,0.00,,CLR,0.00,0.00,VWS V14.01,2013-05-29 03:13:00,
2013-05-28 20:18:00,78.6,54.3,29.57,NW,310,8.0,30.0,43,0.00,,CLR,0.00,0.00,VWS V14.01,2013-05-29 03:18:00,
2013-05-28 20:48:00,77.9,54.3,29.58,NW,321,21.0,32.0,44,0.00,,CLR,0.00,0.00,VWS V14.01,2013-05-29 03:48:00,
2013-05-28 20:53:00,77.7,54.7,29.58,NW,315,27.0,32.0,45,0.00,,CLR,0.00,0.00,VWS V14.01,2013-05-29 03:53:00,
2013-05-28 20:58:00,77.4,54.4,29.58,WNW,298,27.0,35.0,45,0.00,,CLR,0.00,0.00,VWS V14.01,2013-05-29 03:58:00,
2013-05-28 21:01:00,77.2,54.2,29.58,NW,322,15.0,23.0,45,0.00,,CLR,0.00,0.00,VWS V14.01,2013-05-29 04:01:00,
2013-05-28 21:02:00,77.2,54.2,29.58,WNW,290,13.0,28.0,45,0.00,,CLR,0.00,0.00,VWS V14.01,2013-05-29 04:02:00,
2013-05-28 21:05:00,77.2,54.2,29.58,WNW,293,20.0,35.0,45,0.00,,CLR,0.00,0.00,VWS V14.01,2013-05-29 04:05:00,
2013-05-28 21:07:00,77.2,54.2,29.58,WNW,294,25.0,30.0,45,0.00,,CLR,0.00,0.00,VWS V14.01,2013-05-29 04:07:00,
2013-05-28 21:12:00,77.0,54.7,29.58,West,267,30.0,30.0,46,0.00,,CLR,0.00,0.00,VWS V14.01,2013-05-29 04:12:00,
2013-05-28 21:17:00,76.8,55.1,29.58,West,277,19.0,32.0,47,0.00,,CLR,0.00,0.00,VWS V14.01,2013-05-29 04:17:00,
2013-05-28 21:22:00,76.7,52.5,29.58,WNW,299,23.0,29.0,43,0.00,,CLR,0.00,0.00,VWS V14.01,2013-05-29 04:22:00,
2013-05-28 21:27:00,76.5,54.2,29.58,West,273,16.0,30.0,46,0.00,,CLR,0.00,0.00,VWS V14.01,2013-05-29 04:27:00,
2013-05-28 21:32:00,76.5,54.2,29.59,WNW,290,23.0,34.0,46,0.00,,CLR,0.00,0.00,VWS V14.01,2013-05-29 04:32:00,
2013-05-28 21:37:00,76.5,54.2,29.59,NW,305,30.0,30.0,46,0.00,,CLR,0.00,0.00,VWS V14.01,2013-05-29 04:37:00,
2013-05-28 21:42:00,76.3,54.0,29.59,WNW,284,25.0,41.0,46,0.00,,CLR,0.00,0.00,VWS V14.01,2013-05-29 04:42:00,
2013-05-28 21:47:00,76.3,54.0,29.60,WNW,283,12.0,33.0,46,0.00,,CLR,0.00,0.00,VWS V14.01,2013-05-29 04:47:00,
2013-05-28 21:52:00,76.1,53.8,29.60,NW,307,27.0,33.0,46,0.00,,CLR,0.00,0.00,VWS V14.01,2013-05-29 04:52:00,
2013-05-28 21:57:00,76.1,53.8,29.60,NW,308,18.0,32.0,46,0.00,,CLR,0.00,0.00,VWS V14.01,2013-05-29 04:57:00,
2013-05-28 22:02:00,76.0,53.8,29.61,WNW,297,23.0,30.0,46,0.00,,CLR,0.00,0.00,VWS V14.01,2013-05-29 05:02:00,
2013-05-28 22:07:00,76.0,53.8,29.61,WNW,303,25.0,30.0,46,0.00,,CLR,0.00,0.00,VWS V14.01,2013-05-29 05:07:00,
2013-05-28 22:12:00,76.0,53.8,29.61,WNW,294,17.0,32.0,46,0.00,,CLR,0.00,0.00,VWS V14.01,2013-05-29 05:12:00,
2013-05-28 22:17:00,75.8,54.2,29.61,WNW,286,20.0,30.0,47,0.00,,CLR,0.00,0.00,VWS V14.01,2013-05-29 05:17:00,
2013-05-28 22:22:00,75.8,53.6,29.61,WNW,290,20.0,28.0,46,0.00,,CLR,0.00,0.00,VWS V14.01,2013-05-29 05:22:00,
2013-05-28 22:28:00,75.6,53.4,29.61,WNW,303,15.0,28.0,46,0.00,,CLR,0.00,0.00,VWS V14.01,2013-05-29 05:28:00,
2013-05-28 22:33:00,75.6,53.4,29.61,WNW,298,16.0,31.0,46,0.00,,CLR,0.00,0.00,VWS V14.01,2013-05-29 05:33:00,
2013-05-28 22:38:00,75.4,53.2,29.61,West,275,20.0,30.0,46,0.00,,CLR,0.00,0.00,VWS V14.01,2013-05-29 05:38:00,
2013-05-28 22:43:00,75.4,53.2,29.61,NW,308,24.0,32.0,46,0.00,,CLR,0.00,0.00,VWS V14.01,2013-05-29 05:43:00,
2013-05-28 22:48:00,75.3,53.1,29.61,WNW,303,25.0,31.0,46,0.00,,CLR,0.00,0.00,VWS V14.01,2013-05-29 05:48:00,
2013-05-28 22:53:00,75.3,53.1,29.61,West,275,21.0,32.0,46,0.00,,CLR,0.00,0.00,VWS V14.01,2013-05-29 05:53:00,
2013-05-28 22:58:00,75.1,52.9,29.61,NW,323,25.0,28.0,46,0.00,,CLR,0.00,0.00,VWS V14.01,2013-05-29 05:58:00,
2013-05-28 23:03:00,75.1,52.9,29.61,NNW,334,13.0,30.0,46,0.00,,CLR,0.00,0.00,VWS V14.01,2013-05-29 06:03:00,
2013-05-28 23:08:00,75.1,52.9,29.61,WNW,296,20.0,23.0,46,0.00,,CLR,0.00,0.00,VWS V14.01,2013-05-29 06:08:00,
2013-05-28 23:13:00,74.9,53.3,29.61,WNW,296,12.0,25.0,47,0.00,,CLR,0.00,0.00,VWS V14.01,2013-05-29 06:13:00,
2013-05-28 23:18:00,74.7,53.2,29.62,WNW,282,17.0,31.0,47,0.00,,CLR,0.00,0.00,VWS V14.01,2013-05-29 06:18:00,
2013-05-28 23:23:00,74.7,53.2,29.62,WNW,296,21.0,30.0,47,0.00,,CLR,0.00,0.00,VWS V14.01,2013-05-29 06:23:00,
2013-05-28 23:28:00,74.6,53.1,29.62,WNW,292,26.0,27.0,47,0.00,,CLR,0.00,0.00,VWS V14.01,2013-05-29 06:28:00,
2013-05-28 23:33:00,74.6,53.1,29.61,West,280,10.0,32.0,47,0.00,,CLR,0.00,0.00,VWS V14.01,2013-05-29 06:33:00,
2013-05-28 23:38:00,74.6,53.1,29.61,West,281,20.0,29.0,47,0.00,,CLR,0.00,0.00,VWS V14.01,2013-05-29 06:38:00,
2013-05-28 23:43:00,74.6,53.1,29.61,West,275,22.0,29.0,47,0.00,,CLR,0.00,0.00,VWS V14.01,2013-05-29 06:43:00,
2013-05-28 23:48:00,74.7,52.6,29.61,NW,308,24.0,33.0,46,0.00,,CLR,0.00,0.00,VWS V14.01,2013-05-29 06:48:00,
2013-05-28 23:53:00,74.7,52.6,29.61,WNW,290,15.0,33.0,46,0.00,,CLR,0.00,0.00,VWS V14.01,2013-05-29 06:53:00,
2013-05-28 23:58:00,74.6,52.5,29.61,NW,315,14.0,35.0,46,0.00,,CLR,0.00,0.00,VWS V14.01,2013-05-29 06:58:00,